GEFSGL_500_meanwind_186.txt.gz
Wind_Speed
10 10 10 10 10 10 10 10 10 10 10 10 10 9 10 10 11 11 12 12 12 13 14 14 14 14 14 15 15 16 17 18 18 19 20 20 20 20 20 20 20 20 20
11 11 11 11 11 11 11 11 11 11 12 12 12 11 11 11 12 12 12 13 13 14 14 14 14 15 16 16 17 17 18 18 19 19 20 20 21 21 21 21 21 21 21
12 12 13 13 13 13 13 13 13 13 13 13 13 13 13 12 13 13 14 14 14 14 15 15 16 16 17 17 17 18 18 19 20 21 21 21 22 22 22 22 22 23 23
14 14 15 15 15 15 15 14 14 15 15 15 15 15 15 14 14 15 15 15 15 15 15 15 16 17 18 19 19 19 19 20 21 22 22 23 23 23 23 23 24 24 24
16 16 16 17 17 17 17 17 17 17 17 17 17 17 17 17 16 17 16 16 16 16 16 17 17 18 19 20 20 20 21 21 22 23 23 23 23 24 25 25 25 25 25
19 18 18 19 20 20 20 20 19 19 19 20 20 19 18 19 19 19 19 18 18 18 18 18 19 20 21 21 21 21 22 23 23 24 24 23 23 25 26 26 26 26 27
21 21 21 21 22 22 21 21 22 21 21 20 21 20 20 20 20 20 20 20 20 20 20 21 21 21 22 22 23 23 23 24 24 25 25 25 25 26 27 27 27 28 29
25 25 25 25 24 23 23 23 23 23 22 21 21 20 19 20 20 20 21 22 22 22 22 22 22 23 23 24 24 25 25 26 26 26 25 25 26 27 28 29 29 30 30
26 26 26 27 26 24 24 24 24 24 24 23 22 21 21 21 21 22 22 23 23 24 24 24 24 24 25 25 25 26 26 27 27 27 27 28 28 29 29 30 30 31 31
28 27 28 28 27 26 26 25 25 25 25 25 25 23 23 23 23 24 24 25 25 26 26 26 26 27 27 27 27 28 28 29 29 29 29 29 30 31 31 32 32 32 32
30 30 30 30 29 29 28 27 27 26 26 26 25 25 25 25 26 27 27 27 27 28 28 28 28 29 28 28 29 29 30 30 31 31 31 31 32 32 32 33 33 34 34
32 32 32 31 30 30 30 30 29 28 27 27 27 27 28 28 28 28 29 30 29 30 30 30 30 30 30 30 31 31 31 32 32 32 32 32 33 33 33 34 34 34 34
33 33 34 33 32 33 33 33 32 31 29 29 29 29 29 29 30 30 30 31 31 31 31 31 31 32 33 33 33 33 33 33 33 33 34 34 34 34 35 36 36 35 35
35 35 35 34 35 35 35 35 34 34 33 31 31 31 31 31 31 32 32 31 31 32 32 32 32 32 33 33 33 33 33 34 34 34 35 35 35 36 36 37 37 37 37
36 35 36 36 37 36 35 35 35 35 34 34 33 33 33 33 34 34 34 34 33 34 34 34 34 34 34 35 35 35 35 36 36 37 36 36 36 37 37 37 38 38 39
36 35 35 35 35 35 35 36 36 36 36 36 35 35 35 35 36 36 36 35 35 35 35 35 35 36 36 36 36 37 37 38 38 38 38 38 38 39 39 39 39 39 39
37 36 35 36 36 36 37 37 37 38 38 36 36 37 37 38 37 37 37 37 36 36 36 36 37 38 38 38 38 38 39 39 39 39 39 39 39 40 39 39 40 40 40
35 36 36 36 37 38 37 37 38 38 38 37 38 39 39 39 38 38 38 37 37 37 38 38 39 39 39 39 39 39 39 40 39 39 39 39 39 39 39 40 40 40 40
37 37 37 38 38 38 37 37 38 38 38 38 39 39 38 38 38 38 38 38 39 39 39 39 39 39 40 40 40 40 40 40 40 39 39 39 39 40 40 40 40 40 41
36 37 37 38 38 38 37 37 37 37 37 36 36 37 37 37 37 37 38 38 39 39 38 39 40 40 40 40 41 41 40 39 39 39 40 40 40 40 40 40 40 40 40
36 36 37 37 37 37 36 36 36 37 37 37 37 37 36 36 37 38 38 38 38 38 38 38 39 40 40 40 40 39 39 39 39 39 39 40 40 40 40 40 40 40 40
33 34 35 36 36 37 36 36 36 36 36 37 37 37 37 38 38 38 38 39 39 38 38 39 39 40 40 39 39 39 39 39 39 39 40 40 40 40 40 39 39 39 40
33 33 34 35 36 36 36 36 35 35 35 36 37 37 38 38 38 37 37 37 37 38 38 38 38 38 38 38 38 38 39 39 39 40 40 40 40 40 39 40 40 40 39
33 33 33 33 34 34 34 35 36 35 34 35 35 35 36 37 37 37 37 36 36 37 36 36 37 37 37 37 38 38 38 39 39 39 39 39 39 40 40 40 40 40 39
31 32 32 32 32 32 33 34 34 34 33 33 33 34 35 35 35 34 34 34 34 34 35 36 35 36 36 37 37 37 38 38 39 39 39 39 39 39 39 39 39 39 39
29 29 29 30 30 30 30 31 31 31 32 32 33 33 33 32 32 32 32 32 33 33 34 34 35 35 36 36 37 37 37 37 37 37 37 38 38 39 39 39 39 39 39

GEFSGL_500_meanwind_192.txt.gz
Wind_Speed
10 9 9 9 9 9 9 10 11 11 12 12 11 11 12 12 12 12 11 12 12 11 11 11 12 13 15 16 16 17 17 17 17 18 19 19 19 19 19 19 19 20 21
12 11 10 10 11 11 10 11 12 13 13 13 13 13 13 13 14 14 13 12 12 12 12 13 13 14 14 15 16 16 16 17 17 18 18 20 20 21 20 20 20 21 21
13 13 12 12 12 13 13 13 14 14 14 15 15 15 15 14 14 14 14 15 15 14 14 14 15 15 15 16 16 16 17 17 18 19 19 21 21 21 21 22 22 23 24
15 14 14 14 14 15 15 16 17 17 17 17 16 17 17 17 16 16 16 16 16 16 16 16 16 16 16 17 17 17 18 18 19 20 21 21 22 22 22 23 24 24 25
17 17 16 17 17 17 18 18 19 19 19 18 18 18 18 18 18 18 17 17 18 18 18 18 17 18 18 18 19 19 20 20 21 21 22 22 23 23 24 25 25 25 25
20 19 20 20 20 20 20 20 21 20 20 20 19 19 19 20 20 19 19 18 18 19 19 20 20 20 20 21 21 21 22 23 23 23 24 24 25 25 25 26 26 25 25
23 22 22 23 23 23 22 22 22 22 23 22 21 21 21 21 22 21 21 21 21 20 21 21 22 22 23 23 24 23 24 25 25 25 25 26 26 26 27 27 27 27 27
25 26 25 25 25 24 24 24 25 25 26 25 24 24 23 23 23 23 23 24 24 24 23 24 25 25 26 26 26 26 26 26 26 27 27 28 28 28 28 28 28 29 29
28 27 27 27 27 27 27 27 27 27 28 26 26 25 25 25 25 25 25 26 26 26 26 26 27 27 28 28 28 27 28 28 28 28 29 28 28 28 28 29 30 30 31
30 29 29 30 30 30 30 30 29 30 29 29 27 26 26 27 27 27 27 27 27 28 28 29 29 29 29 29 29 30 30 30 30 29 29 30 30 30 30 31 32 33 33
34 33 32 33 32 32 32 32 31 30 29 28 28 28 29 28 27 27 28 28 29 30 30 30 31 31 30 30 31 31 31 31 31 31 31 32 32 33 33 33 34 34 35
36 36 36 35 34 35 34 34 34 32 31 30 29 28 29 28 27 28 28 29 30 31 31 31 31 32 31 30 31 31 32 32 32 33 33 34 34 35 35 35 35 36 36
37 38 38 38 37 36 36 35 35 34 32 30 30 29 29 29 29 29 30 30 30 31 32 32 32 32 33 33 33 34 34 35 34 35 35 36 36 37 36 36 37 37 37
40 40 41 40 40 39 37 37 35 35 33 32 30 31 31 31 31 31 31 31 31 32 32 32 33 34 35 35 36 36 36 36 36 37 37 37 38 37 37 37 37 38 38
42 42 42 41 40 40 39 38 37 36 35 34 33 34 34 33 33 33 34 34 34 34 34 34 35 35 36 37 37 37 37 37 38 38 39 40 39 39 39 39 39 39 39
42 42 41 40 40 39 39 39 38 38 37 36 36 36 36 36 36 36 36 36 37 37 37 37 37 37 37 38 39 39 39 39 40 40 41 41 41 41 42 41 41 40 40
40 40 39 39 40 39 39 39 39 38 37 36 36 37 37 38 38 38 37 38 38 38 38 38 37 37 38 38 39 39 39 40 41 42 41 41 42 42 42 42 41 41 41
40 39 40 41 41 40 39 39 40 39 39 38 37 38 38 38 38 38 38 39 39 39 38 38 37 38 39 40 40 40 41 42 42 41 41 42 43 43 43 42 41 41 41
40 40 41 42 42 41 40 40 40 40 40 40 39 39 37 37 39 39 38 39 39 38 38 38 39 39 40 40 40 41 42 42 42 43 43 43 43 43 43 42 42 41 41
41 41 42 42 41 41 42 41 41 41 40 40 40 39 39 38 39 39 39 39 40 39 38 38 39 40 40 41 41 42 43 42 43 43 43 43 43 43 42 41 41 41 40
39 40 40 40 39 40 40 39 39 38 38 39 39 39 38 38 37 37 37 37 38 38 38 38 39 39 40 40 40 41 41 42 43 43 43 42 42 41 41 41 40 40 40
36 37 37 37 37 38 37 36 37 37 37 38 37 36 36 36 36 36 36 36 36 37 37 37 38 38 39 38 39 39 40 41 41 41 41 41 41 41 40 40 40 41 41
35 35 35 35 35 34 34 34 35 35 36 36 36 36 36 35 36 36 36 36 36 36 37 37 37 37 37 38 38 39 40 40 40 40 40 39 39 39 39 39 39 40 41
33 33 33 33 34 34 34 33 33 33 34 35 35 34 34 34 35 36 36 36 36 36 36 36 36 37 37 37 38 38 39 39 39 38 38 38 38 37 37 38 38 39 39
31 31 32 31 32 32 31 32 32 32 33 32 32 31 32 33 33 33 33 33 34 34 35 35 35 35 35 36 36 36 36 37 37 37 37 36 36 36 36 37 37 38 38
28 28 28 28 28 29 30 31 30 30 30 30 30 30 30 30 30 30 30 31 32 32 33 33 33 33 34 34 35 35 35 35 35 35 35 35 35 35 35 36 35 36 36

GEFSGL_500_meanwind_198.txt.gz
Wind_Speed
14 14 14 14 13 12 12 12 13 13 13 13 13 13 13 13 13 13 13 13 13 13 13 14 14 14 15 15 15 16 16 16 16 17 17 18 19 19 19 19 19 20 20
15 15 15 15 15 14 14 14 14 14 14 14 15 15 16 15 15 15 16 15 15 15 15 15 15 16 16 16 16 17 17 17 17 17 17 18 19 19 19 20 20 21 20
17 17 17 17 17 16 16 15 15 16 16 16 16 17 17 17 17 16 16 16 17 16 17 17 17 18 17 18 18 18 19 19 19 18 18 19 19 19 20 21 21 21 21
19 19 19 19 19 19 18 18 18 18 18 18 18 19 19 18 19 18 18 18 18 18 18 19 19 19 19 19 19 20 20 20 20 21 21 21 22 22 22 22 23 23 23
22 21 20 21 21 21 20 20 20 20 21 21 21 21 21 21 21 20 20 20 20 20 21 21 21 21 21 21 21 21 22 22 22 23 23 23 24 24 24 24 25 25 25
25 23 22 22 22 22 22 22 22 22 23 23 24 24 24 24 23 23 23 23 22 22 23 23 23 22 22 22 22 23 23 24 24 24 25 25 25 26 26 26 27 27 27
28 27 25 24 23 23 23 24 24 24 24 25 25 26 26 26 26 26 26 26 25 25 24 25 25 25 25 25 24 24 24 25 26 27 27 27 28 28 28 28 28 28 28
30 29 28 27 26 26 26 26 26 26 26 27 28 28 27 28 28 29 29 29 28 27 26 26 27 27 27 27 26 26 26 27 27 27 28 29 29 29 29 28 28 29 29
32 31 30 30 29 28 29 29 28 29 29 29 30 30 30 31 31 31 31 31 29 29 28 28 28 28 28 28 28 28 28 28 29 29 29 29 30 30 30 30 30 30 30
34 33 32 32 32 31 31 32 31 31 32 32 32 32 33 33 33 33 32 31 30 29 29 29 29 29 29 30 30 30 29 29 30 30 30 31 31 31 31 31 31 31 32
36 36 34 34 34 33 33 33 34 34 34 35 35 34 35 35 33 33 32 32 31 31 31 30 29 29 29 30 30 31 31 32 32 32 32 33 33 33 33 33 33 34 33
38 38 37 36 36 36 36 35 35 36 36 36 36 36 36 36 35 34 34 33 33 32 31 30 30 30 30 31 31 32 33 34 34 35 35 34 34 34 35 35 36 37 37
39 39 39 39 38 38 38 38 37 37 37 37 37 37 37 36 35 35 35 34 34 33 32 32 32 32 32 33 33 33 34 35 35 35 36 36 36 36 37 38 38 39 38
39 39 39 40 40 40 40 39 38 37 38 38 38 38 37 36 36 36 35 34 34 34 34 34 35 34 34 35 35 35 35 36 36 37 37 37 37 37 37 38 39 39 38
39 39 39 40 40 39 40 39 39 38 37 38 38 38 38 37 37 37 37 36 36 36 36 36 35 36 36 36 37 36 37 37 37 37 38 38 38 38 38 39 39 40 40
41 40 40 40 40 40 40 40 39 38 38 38 38 39 39 38 38 38 37 37 37 37 38 38 37 37 37 38 37 38 38 38 38 39 38 38 38 39 39 40 40 41 41
41 41 41 40 39 40 39 39 40 40 40 40 39 39 39 39 39 39 39 39 39 38 38 38 38 38 39 39 38 39 39 39 39 40 40 40 40 40 40 40 40 41 41
41 41 40 39 39 39 40 41 41 41 41 40 40 39 39 40 40 40 39 40 40 39 38 38 38 39 39 39 39 40 40 39 39 40 41 41 41 41 41 41 42 43 43
40 40 39 39 39 40 40 41 41 41 41 41 40 39 40 40 40 40 39 39 39 39 39 40 40 40 40 40 40 40 40 39 40 40 41 40 40 41 41 42 42 43 43
39 39 39 39 40 40 40 41 41 41 40 40 40 39 40 40 40 40 40 40 40 39 39 39 40 40 40 41 40 40 40 40 40 40 40 40 40 40 41 41 41 41 42
39 39 39 39 39 39 39 39 39 39 38 39 40 40 40 40 39 40 41 40 39 38 38 39 39 39 39 39 39 39 39 40 39 39 38 39 39 40 40 41 41 41 40
37 37 37 36 36 36 37 37 37 38 38 39 39 38 37 38 38 38 39 38 38 37 37 38 38 38 37 37 37 37 38 38 37 37 37 38 38 39 39 40 40 40 40
35 35 34 34 34 35 35 35 36 37 37 37 36 34 34 35 36 36 36 36 36 37 37 37 36 36 35 36 36 36 36 36 36 36 37 37 37 38 38 38 38 38 38
32 32 32 32 32 33 33 33 34 34 34 34 33 32 32 33 33 34 34 34 34 35 35 35 34 34 34 34 34 34 34 35 35 36 36 37 37 37 37 37 37 37 37
29 29 29 30 30 31 31 30 30 30 30 30 30 30 30 31 31 31 31 32 32 33 33 32 32 33 33 33 33 34 34 34 35 35 35 35 36 36 36 36 35 35 35
26 26 27 27 27 27 27 27 27 27 28 28 29 29 30 30 30 30 30 30 31 31 31 30 30 31 31 31 32 33 33 33 34 34 34 35 35 35 35 35 35 34 34

GEFSGL_500_meanwind_204.txt.gz
Wind_Speed
10 10 10 10 9 9 8 9 9 9 9 9 9 10 10 10 10 9 9 9 10 10 11 12 12 12 13 13 14 14 15 15 16 16 16 16 16 16 16 17 18 18 19
12 12 13 13 12 12 11 11 10 10 10 11 11 12 12 13 12 12 11 11 12 13 13 13 13 13 14 14 15 16 16 17 17 17 17 17 17 18 18 18 19 19 19
15 15 15 15 14 14 14 14 14 13 13 12 13 13 14 14 14 14 14 14 14 14 14 14 14 15 16 16 17 17 18 19 19 19 18 18 19 19 20 20 20 20 20
19 18 18 17 17 16 17 17 17 16 15 15 15 15 16 16 16 17 17 16 16 16 16 16 16 17 17 18 19 20 20 21 21 21 20 20 20 21 21 21 21 21 22
22 21 20 20 20 18 19 20 19 18 17 17 17 18 18 18 18 18 19 18 19 19 18 18 18 19 20 20 21 21 22 22 23 23 23 22 22 22 22 22 22 23 23
25 23 23 22 22 21 22 22 22 21 21 21 20 20 20 20 20 20 20 20 21 21 20 20 20 21 22 22 23 23 24 24 24 25 25 24 24 24 24 24 24 24 24
27 26 26 25 24 24 25 24 24 24 24 24 23 23 22 22 22 22 23 22 22 22 22 22 22 22 23 24 24 24 25 25 25 25 25 25 25 25 25 25 26 26 26
28 28 27 27 27 27 26 26 26 25 25 25 26 25 25 25 26 26 24 24 25 24 24 24 23 24 25 25 25 26 26 26 27 27 27 26 26 26 27 27 27 28 28
30 30 29 29 30 29 29 29 29 28 28 28 28 28 27 27 28 28 27 27 26 26 25 24 25 25 26 26 26 26 27 27 28 28 27 28 28 28 29 30 30 30 30
33 32 31 31 31 32 32 31 31 31 31 31 30 30 30 30 30 29 28 28 27 26 26 26 26 27 27 27 27 28 28 28 28 29 29 29 29 30 30 31 31 32 32
35 33 34 34 34 35 35 34 34 34 34 33 33 32 33 33 32 31 30 29 28 28 28 28 29 29 28 28 29 29 29 29 29 29 30 31 31 32 32 32 32 33 33
38 36 36 36 36 36 36 36 35 35 35 35 34 33 34 34 34 32 30 29 30 29 29 29 30 30 30 30 30 30 30 31 31 31 31 32 32 32 33 33 33 34 35
37 37 37 37 37 36 36 36 37 36 36 36 35 34 33 33 32 31 29 29 29 30 30 31 31 31 31 31 32 32 32 32 32 32 32 32 33 33 34 34 35 35 35
36 37 36 36 36 36 35 36 36 36 36 35 36 35 35 33 32 31 30 30 30 30 31 31 32 31 32 33 33 33 34 34 34 33 33 33 34 35 35 35 35 36 37
37 37 37 37 37 37 37 37 37 35 35 35 35 35 34 34 34 33 32 32 32 33 33 32 33 33 34 33 34 34 35 35 35 35 35 35 35 36 36 36 36 37 37
38 38 38 38 37 37 37 37 36 36 36 35 34 34 34 35 34 34 34 34 35 35 34 34 34 34 34 35 34 34 34 34 35 35 36 36 37 37 38 38 38 38 38
39 39 39 38 38 38 38 38 37 36 37 36 35 34 34 34 35 36 36 36 36 36 36 36 36 36 35 35 35 35 34 35 36 37 38 38 38 39 39 38 38 37 37
38 38 38 38 39 39 38 39 38 37 36 35 35 36 37 37 36 36 37 37 37 37 37 36 36 36 36 36 36 36 36 37 37 38 38 39 39 39 39 38 37 37 37
37 38 38 38 38 38 37 37 38 37 36 36 36 37 38 38 38 38 39 38 38 38 38 38 38 38 37 37 36 37 37 38 38 38 38 38 39 38 38 38 38 37 37
36 36 36 37 37 37 37 37 36 36 35 35 36 36 37 37 38 38 38 37 37 38 38 38 38 38 38 37 37 37 37 38 38 38 38 38 38 38 38 37 37 37 37
34 35 35 36 36 36 36 36 35 35 35 35 35 36 36 37 37 36 36 35 35 36 36 36 36 37 36 36 36 36 37 36 36 36 36 36 36 36 36 36 36 36 36
33 33 34 34 34 34 34 34 34 34 34 35 35 35 35 35 35 35 35 35 35 36 36 36 36 35 35 34 34 33 33 33 33 33 34 34 35 35 35 35 35 36 36
30 31 31 31 31 31 32 32 32 32 33 33 34 34 34 34 34 34 33 33 34 34 35 34 33 33 32 32 33 32 32 32 33 33 33 33 34 34 35 35 35 35 35
27 27 27 28 29 29 29 29 30 30 30 30 31 31 31 31 32 32 32 32 32 32 32 32 32 32 31 31 31 31 32 32 31 31 32 33 34 34 34 34 35 35 35
23 23 24 24 25 25 26 26 27 27 27 27 27 28 29 29 29 30 30 30 30 31 31 31 32 32 32 31 31 31 31 31 31 32 32 33 32 33 33 34 34 34 34
20 20 20 21 21 22 22 22 23 24 25 25 25 26 27 28 28 28 29 29 29 29 30 30 30 31 30 30 30 30 31 31 32 32 32 32 31 31 32 33 33 33 33

GEFSGL_500_meanwind_210.txt.gz
Wind_Speed
16 15 14 14 14 14 14 14 13 12 13 13 14 13 13 13 13 14 15 15 15 15 15 15 16 16 16 16 17 16 16 16 16 16 17 18 18 18 18 19 19 20 20
18 18 17 18 19 18 17 16 16 15 15 15 16 15 15 15 15 16 16 16 17 17 17 17 17 16 16 17 17 17 17 18 18 18 19 19 20 20 20 20 20 20 21
21 20 19 20 21 21 21 20 19 18 18 18 18 18 18 18 18 18 18 18 18 18 18 19 19 19 19 19 18 19 19 20 20 20 21 21 21 22 22 22 23 23 23
22 21 21 21 22 24 24 23 23 21 21 20 20 20 20 21 21 21 21 21 20 20 20 21 21 21 20 20 19 19 20 21 22 22 22 22 23 24 24 24 25 25 25
23 23 23 23 23 24 25 25 24 23 22 22 21 21 22 22 23 23 24 23 23 23 23 23 23 22 22 22 22 22 22 22 23 24 24 24 24 25 25 26 26 26 27
26 26 26 27 26 26 26 26 26 25 24 23 23 24 24 24 25 25 25 25 25 25 25 25 24 24 24 24 24 24 24 24 24 25 26 26 26 26 27 28 28 28 28
29 29 28 29 28 28 27 27 27 27 26 26 26 26 26 25 25 26 26 27 27 27 27 27 27 26 26 26 26 26 26 26 26 26 27 28 28 28 29 29 29 30 30
30 30 30 30 30 30 29 29 30 30 30 30 29 28 28 28 28 27 28 28 28 28 27 28 28 29 29 29 29 29 29 29 29 28 28 29 30 30 29 30 30 31 31
31 30 30 31 31 32 32 32 32 32 32 32 32 31 30 30 31 30 30 29 29 28 28 29 30 30 31 32 32 32 32 32 32 31 30 30 30 30 30 30 30 31 31
33 33 32 32 32 32 34 34 34 33 33 33 33 33 33 32 32 32 32 31 30 30 30 31 32 33 33 34 33 32 32 33 33 33 32 32 31 31 31 31 32 32 32
35 34 34 34 34 35 35 35 35 34 35 34 34 34 34 33 33 33 34 33 32 31 32 33 34 35 35 35 34 33 32 33 34 34 33 32 32 32 32 32 33 33 33
36 37 37 37 38 38 37 36 37 36 36 35 35 35 36 36 35 34 35 35 35 34 34 34 34 35 35 35 34 34 34 34 34 34 34 33 33 33 33 33 34 34 35
38 38 39 38 39 39 38 37 36 36 37 37 37 36 37 37 36 36 36 36 35 35 35 35 35 35 34 34 34 34 34 34 34 35 35 35 36 36 36 35 35 35 36
40 39 38 38 38 38 38 37 37 37 38 38 37 37 38 37 37 37 36 36 36 35 35 35 34 35 34 34 34 33 34 34 35 36 36 37 37 37 37 37 37 37 37
41 41 39 39 37 37 36 37 38 38 39 38 37 38 38 37 37 37 36 36 35 35 35 35 35 35 35 35 35 35 36 36 36 37 38 38 38 38 38 38 38 39 39
40 40 39 38 37 37 38 38 38 38 37 38 37 36 37 37 37 37 37 36 36 36 36 36 36 36 36 36 37 37 37 37 37 38 38 38 38 38 39 40 40 40 40
38 37 37 37 38 38 37 37 37 37 37 37 37 37 36 37 37 36 36 35 36 36 36 36 36 37 37 38 38 38 38 39 39 39 39 39 39 39 39 39 39 39 39
35 36 36 36 35 35 36 36 35 35 36 36 36 36 36 36 37 36 36 36 36 36 35 35 36 37 37 38 38 39 40 40 40 40 39 39 38 38 39 39 40 40 40
33 34 34 34 35 35 35 34 35 34 35 36 36 36 36 37 37 36 37 37 37 36 36 36 37 37 38 38 39 39 39 39 39 39 38 38 39 38 38 38 39 39 40
31 31 32 32 33 33 32 33 34 34 34 35 35 35 36 36 36 36 36 37 37 38 38 38 38 39 39 39 39 39 39 38 38 38 38 39 39 39 39 39 39 40 40
29 30 30 30 30 31 31 32 32 33 33 33 33 34 34 35 35 36 36 37 38 38 39 39 39 38 38 38 38 38 37 37 37 37 38 39 38 38 39 39 38 38 38
28 28 29 29 29 29 29 30 30 29 30 30 30 31 32 33 34 35 35 35 36 36 36 36 36 36 36 36 36 36 36 35 35 36 36 37 37 37 37 36 36 36 36
27 27 27 27 27 28 28 28 28 28 29 30 30 30 31 32 32 33 33 33 33 34 34 34 33 33 33 34 34 34 34 34 34 34 35 35 35 34 35 35 36 36 35
25 25 24 25 25 27 27 27 27 27 28 28 28 28 28 29 30 30 30 31 31 31 31 31 31 32 32 32 32 32 32 33 33 34 34 34 34 34 34 35 35 35 35
22 23 23 23 24 24 25 25 25 25 25 25 25 25 25 26 26 27 27 28 28 29 29 30 30 30 31 31 31 32 32 32 33 33 34 34 35 35 35 35 35 34 35
21 22 22 22 21 22 22 22 22 22 22 22 23 23 23 23 24 25 25 26 26 27 28 28 29 29 30 31 31 31 32 32 33 33 33 33 34 34 34 34 34 34 35

GEFSGL_500_meanwind_216.txt.gz
Wind_Speed
17 17 18 17 17 17 17 17 17 17 17 17 17 17 16 16 16 15 15 15 15 15 16 16 17 17 17 17 18 18 19 19 19 19 20 20 20 20 20 21 21 21 21
21 20 20 20 20 21 21 20 20 19 18 19 20 19 19 19 19 18 18 17 17 17 17 18 18 19 19 19 19 19 19 19 20 20 20 21 21 22 22 22 22 23 23
23 22 23 23 23 24 24 23 22 22 20 20 21 22 21 21 21 21 20 20 19 19 19 19 20 20 20 20 20 20 20 20 20 20 21 22 22 23 24 24 24 24 25
25 24 25 25 25 25 24 23 23 23 23 24 24 24 24 23 22 23 23 22 22 21 22 22 23 22 23 22 22 22 23 23 22 22 22 23 23 24 24 25 26 26 27
26 26 26 27 28 28 27 25 25 25 26 26 26 26 26 26 26 25 25 25 25 24 24 24 24 25 25 25 25 25 26 26 25 25 25 25 24 25 25 26 27 28 28
27 27 28 29 30 29 28 27 27 27 27 28 28 28 28 27 28 28 27 27 27 26 25 26 26 27 28 28 28 28 27 27 27 27 27 28 27 28 28 28 29 29 29
29 29 30 30 31 31 30 28 28 28 29 30 30 30 30 30 29 29 29 28 27 27 27 27 27 27 29 29 29 29 29 29 29 30 30 30 30 30 30 30 30 31 30
31 31 31 32 33 32 31 30 30 30 30 31 32 32 32 32 31 31 31 29 29 29 28 28 29 29 30 30 30 30 31 31 31 31 32 32 32 32 32 32 32 32 31
33 33 33 33 33 33 32 32 33 34 34 34 34 33 33 33 32 32 32 32 31 30 30 30 30 30 31 31 32 32 33 32 33 34 33 33 33 33 33 33 33 33 33
35 36 36 36 35 34 34 33 34 35 35 35 36 35 35 34 34 34 34 33 33 32 31 31 31 31 32 33 34 34 34 34 35 35 35 34 34 34 34 34 34 34 34
38 39 39 38 37 37 35 35 36 37 37 38 38 37 36 36 36 36 36 36 35 34 33 33 33 33 34 35 35 36 36 36 36 35 36 36 35 35 35 34 34 35 35
39 40 40 39 39 38 37 36 37 38 39 39 38 37 36 35 37 38 37 37 36 36 35 36 35 35 35 36 36 36 37 37 36 36 37 37 37 37 36 35 34 35 35
39 40 40 39 39 38 37 37 38 39 39 39 37 37 36 37 37 37 38 38 37 37 37 37 36 36 36 36 37 37 37 37 37 38 38 38 38 38 38 37 36 35 36
40 40 40 39 39 39 39 38 38 38 38 38 38 37 37 38 38 37 37 37 38 38 38 37 37 37 38 38 38 38 38 38 39 38 38 37 37 37 38 38 38 38 38
40 40 39 39 38 39 40 39 38 37 38 38 39 38 37 37 36 37 37 38 38 38 39 39 39 39 39 39 39 39 39 38 38 38 38 38 38 38 38 38 38 38 38
38 38 39 39 38 38 38 39 39 39 38 37 37 38 37 37 36 36 37 37 38 39 39 40 39 39 39 39 39 39 38 38 38 38 38 38 38 38 38 38 38 38 38
38 38 38 38 37 38 38 38 38 38 37 37 37 37 36 36 36 37 37 37 38 38 39 39 40 40 40 39 39 38 38 38 38 38 38 38 38 38 39 39 38 38 38
37 36 36 36 36 37 37 37 37 37 36 36 36 36 36 37 37 38 38 38 38 38 38 39 39 39 38 38 38 38 38 38 39 39 38 38 38 38 38 38 38 38 39
36 35 36 35 36 36 36 36 36 36 36 35 35 35 36 37 37 38 39 38 38 37 37 38 38 38 39 38 37 37 37 37 38 38 38 38 38 37 37 37 38 38 38
34 34 34 35 35 35 35 35 34 34 35 35 35 35 35 36 36 36 37 37 36 36 36 37 38 39 39 39 38 38 38 38 38 37 37 37 37 37 37 38 38 38 38
31 32 32 32 32 33 33 33 32 33 33 33 33 33 34 34 34 34 34 34 35 36 36 36 37 38 38 38 37 37 37 37 37 37 36 36 36 37 37 37 37 37 38
30 30 30 30 31 31 31 31 31 32 31 31 31 31 31 32 31 31 31 32 32 32 33 33 34 35 34 35 35 36 36 36 36 36 36 35 36 36 36 37 37 37 37
29 29 29 29 29 30 30 31 31 30 30 30 30 30 29 29 30 30 30 31 31 32 32 33 33 32 32 32 33 34 34 34 35 35 35 36 36 36 36 36 36 36 36
27 27 27 28 28 29 29 28 28 28 28 28 28 28 28 28 29 30 30 30 31 31 31 31 31 31 31 31 32 32 32 32 33 34 34 35 35 35 36 36 36 36 36
24 24 24 25 26 26 26 26 26 26 27 27 27 27 27 27 28 28 29 29 30 30 30 31 31 31 31 31 31 31 31 32 32 33 34 35 35 35 35 36 36 36 36
21 20 21 21 22 22 23 23 24 24 25 25 25 26 26 27 27 27 28 28 29 29 29 29 29 29 29 29 30 30 31 31 32 33 34 34 34 35 35 35 36 36 35

GEFSGL_500_meanwind_222.txt.gz
Wind_Speed
16 17 17 17 17 18 18 18 17 18 18 17 16 15 15 16 16 16 16 16 16 17 16 16 16 17 17 17 17 17 18 18 18 18 18 19 19 18 18 19 19 20 20
18 18 19 19 19 20 20 20 19 20 20 20 18 17 18 18 18 19 19 18 18 18 18 18 18 19 19 19 19 19 19 19 20 20 20 19 19 19 19 20 20 20 20
21 20 20 21 21 22 22 22 22 23 23 22 20 19 20 20 20 21 21 20 20 20 20 20 21 20 21 21 21 22 22 22 22 22 22 22 22 21 21 22 22 22 22
23 23 23 23 23 24 24 24 25 25 25 24 23 22 23 23 22 22 23 23 23 23 23 23 23 23 23 23 24 24 24 24 23 23 24 24 24 24 24 24 24 24 24
26 25 25 26 27 26 26 26 27 28 27 25 25 26 26 25 25 25 26 26 26 26 26 25 26 26 26 26 26 26 26 26 26 26 26 26 26 26 26 25 25 26 26
28 28 28 27 28 28 28 28 28 29 28 27 27 26 27 27 28 28 28 28 29 29 28 28 28 28 29 29 28 28 28 28 28 28 28 29 28 28 28 28 27 27 27
30 30 30 30 29 29 29 29 30 30 29 29 29 30 29 28 29 29 30 31 31 31 31 30 30 30 31 30 29 29 29 29 29 28 29 29 30 30 30 30 29 29 29
32 32 33 33 31 31 31 32 32 32 32 32 32 32 30 30 31 32 32 33 33 34 33 33 32 32 32 32 31 30 30 30 30 30 30 31 31 31 32 32 31 31 31
33 33 33 33 33 34 34 34 34 34 34 34 34 32 32 31 32 33 34 34 34 34 34 34 34 34 34 33 33 32 31 31 32 32 33 33 33 33 33 33 33 33 32
35 35 35 35 36 36 36 35 36 36 35 35 34 34 34 33 33 34 36 35 35 36 35 36 36 36 37 36 34 33 33 33 33 33 33 33 34 34 34 34 34 34 34
37 37 37 37 38 38 38 37 37 38 38 37 36 37 36 35 35 35 36 36 37 37 37 37 37 37 37 36 35 34 34 33 33 33 33 34 34 34 34 35 35 35 35
39 39 38 39 39 39 39 39 38 37 39 38 37 37 37 36 36 37 37 38 39 38 38 38 37 37 37 36 36 35 34 34 34 34 34 34 34 35 35 35 34 34 35
40 40 40 40 39 39 40 39 40 39 38 39 37 37 36 37 38 38 38 39 39 39 39 39 38 37 37 36 36 36 35 35 35 35 35 35 35 35 35 35 35 35 36
40 40 41 40 40 40 40 40 41 40 39 39 37 37 38 39 39 39 39 38 39 39 40 40 40 39 38 37 37 37 37 37 37 38 38 37 37 37 36 36 36 36 36
41 41 41 42 42 42 41 41 41 41 40 39 38 38 38 39 39 39 39 39 40 40 40 40 40 39 39 39 39 39 39 39 38 38 38 38 38 38 37 36 36 36 35
41 41 42 42 42 43 42 42 41 41 41 39 39 39 39 39 40 40 40 40 41 41 40 39 38 38 38 38 37 37 38 38 38 38 38 38 37 37 36 36 36 36 35
40 41 42 42 41 42 41 41 41 41 41 39 39 39 39 39 39 40 40 40 40 39 38 38 37 37 36 36 36 36 36 36 36 37 37 37 37 36 36 36 36 36 36
39 40 40 41 40 39 39 39 39 39 38 39 38 38 38 39 39 39 39 38 36 36 36 35 35 35 35 35 35 35 35 35 36 36 36 36 36 36 36 35 35 35 36
39 39 39 39 38 38 38 38 37 37 37 37 37 37 38 38 38 38 38 36 35 34 34 34 34 34 34 34 35 35 35 35 36 36 36 36 36 35 36 36 36 36 36
36 36 36 36 36 36 37 37 36 36 36 36 36 37 36 36 36 36 35 34 34 34 34 34 33 33 34 34 35 35 35 35 35 35 35 35 35 34 35 35 35 36 36
34 34 34 34 34 34 34 34 34 34 34 35 34 35 35 34 34 34 34 33 33 34 34 34 33 34 34 34 34 34 35 35 35 35 35 35 34 34 35 36 36 36 35
31 31 31 32 32 32 32 32 32 32 33 33 33 33 33 32 32 33 33 33 32 32 32 33 33 34 34 34 33 33 35 35 35 34 34 35 35 36 35 34 34 34 34
29 29 29 30 30 30 30 30 30 30 31 31 31 31 31 31 31 31 31 31 31 31 31 32 33 33 33 33 33 33 33 34 34 34 34 34 34 34 34 34 34 34 33
27 28 28 28 29 29 29 28 28 28 28 28 29 30 30 30 30 30 30 30 30 30 31 31 31 31 31 31 32 32 32 33 32 32 33 32 32 33 33 33 33 33 33
25 25 26 26 26 26 26 25 25 26 26 27 27 27 27 28 28 29 29 29 29 28 29 29 29 29 29 29 30 31 31 31 31 31 32 32 32 32 32 33 33 34 34
22 22 22 22 22 22 22 22 23 23 24 24 24 24 25 25 25 26 26 26 26 27 27 27 28 28 29 29 29 30 30 31 31 31 32 32 32 32 33 33 33 34 34

GEFSGL_500_meanwind_228.txt.gz
Wind_Speed
15 15 15 14 14 13 13 12 12 13 13 13 13 13 14 14 15 15 16 16 16 15 16 16 16 16 16 16 16 16 16 16 17 17 17 18 19 19 19 19 19 19 19
18 18 18 17 17 16 15 15 15 15 15 15 16 16 17 17 17 18 19 18 18 17 17 17 17 18 18 18 18 18 18 18 18 18 18 19 19 19 20 20 20 20 20
20 19 19 19 18 17 17 17 17 18 18 18 18 19 20 20 19 19 20 20 20 20 19 19 19 19 19 19 19 19 19 19 19 19 20 20 20 21 21 21 22 22 22
22 21 22 21 20 20 20 19 20 20 21 21 21 21 22 22 21 21 22 22 21 22 22 22 22 21 21 21 22 22 22 22 22 22 22 22 22 22 23 24 24 24 24
24 24 23 23 23 22 22 22 22 22 23 23 23 23 23 23 23 23 24 24 24 24 25 25 25 25 25 24 24 24 25 24 24 24 24 24 24 25 25 25 26 26 26
26 25 24 24 25 24 25 25 25 25 25 26 26 26 25 25 25 26 26 26 26 26 26 26 26 27 27 27 26 26 26 26 26 26 26 26 26 27 27 26 26 26 26
27 27 28 27 27 28 28 28 29 29 28 27 27 28 28 27 27 27 27 28 29 28 28 28 28 28 29 29 29 29 29 29 29 29 28 28 28 28 29 28 28 28 28
29 30 30 31 31 31 31 31 31 31 30 30 29 31 30 29 29 29 29 30 30 29 29 29 29 30 31 31 32 32 31 31 32 32 31 30 30 30 30 30 29 29 29
30 30 31 32 32 32 32 32 32 32 32 32 33 32 30 29 30 30 30 30 31 30 30 30 31 32 33 33 33 33 32 31 32 32 32 32 31 31 31 31 31 30 30
31 31 32 32 32 33 33 33 33 33 34 35 35 33 32 31 31 31 31 32 32 32 31 31 31 32 33 34 34 34 32 32 32 32 33 33 32 32 32 32 32 31 31
32 33 33 34 34 35 35 35 35 34 35 35 34 34 33 33 33 32 32 33 33 33 33 33 33 34 34 35 34 34 33 33 33 33 33 33 33 33 33 33 32 33 33
34 35 35 36 36 36 36 36 35 35 35 35 35 35 34 34 34 34 34 35 34 34 34 34 35 35 36 36 36 35 35 35 35 35 35 35 35 34 34 34 34 34 34
36 36 36 37 37 37 37 37 36 36 36 35 35 36 36 35 35 35 36 36 36 36 36 36 36 36 36 36 36 36 36 37 37 37 37 37 37 36 36 35 35 35 36
37 37 37 37 37 37 38 37 37 37 37 38 37 36 36 36 36 37 37 37 37 37 36 37 36 36 36 36 36 37 38 38 38 38 38 38 38 38 37 36 36 36 36
37 37 37 37 37 37 37 38 38 37 37 37 37 36 36 36 37 37 37 37 37 37 37 37 37 37 38 38 38 39 39 38 38 37 37 37 37 38 37 37 37 37 36
37 37 37 37 37 37 37 37 38 37 37 36 36 36 36 36 36 36 37 37 38 38 38 38 38 39 39 39 40 39 39 38 37 37 37 37 37 38 38 37 37 36 35
37 37 38 38 38 38 38 37 37 37 36 36 36 35 35 36 36 36 37 38 38 38 38 38 38 38 39 39 39 38 37 36 36 36 37 37 37 37 37 37 37 37 36
37 37 37 38 38 38 37 38 37 37 36 35 35 36 36 36 36 36 36 36 37 38 38 38 38 38 38 38 37 37 36 36 36 36 37 37 37 37 37 37 37 37 38
36 37 37 37 37 36 35 35 35 34 34 34 34 35 35 35 35 35 35 36 36 36 36 36 36 36 37 37 36 36 36 36 36 36 36 36 36 37 37 37 36 36 36
34 34 33 33 33 32 31 32 32 33 33 33 33 33 34 34 35 35 34 35 34 34 35 35 36 36 36 36 36 36 36 35 35 35 35 36 36 36 36 35 35 35 36
31 30 30 30 30 31 30 31 31 32 32 32 32 32 32 32 33 33 32 32 33 33 34 34 34 33 33 33 33 34 34 34 34 34 34 34 35 35 34 35 35 36 36
29 29 28 29 29 29 29 29 29 29 29 30 30 30 30 30 30 30 30 30 31 31 32 31 31 30 30 31 32 32 32 31 32 32 33 33 34 34 34 34 35 35 35
27 27 27 27 27 28 27 27 28 28 28 28 28 29 29 29 29 29 29 29 29 30 29 29 29 29 29 30 30 30 30 31 31 31 32 32 33 33 33 33 34 33 34
24 25 25 25 26 26 27 27 28 28 28 27 26 27 27 27 27 27 27 27 28 28 28 28 28 28 29 29 30 30 30 30 30 30 31 32 33 33 33 33 33 33 34
21 22 22 22 24 25 25 25 25 25 24 24 24 24 25 25 25 25 25 26 26 26 26 26 26 27 28 29 29 29 30 31 31 32 32 32 33 33 33 33 33 33 34
20 19 20 21 21 21 22 23 23 23 24 23 24 24 24 23 23 24 24 25 25 24 25 25 26 26 27 28 28 29 29 30 30 31 31 32 33 33 33 32 32 32 33

GEFSGL_500_meanwind_234.txt.gz
Wind_Speed
15 16 16 15 14 14 15 15 16 17 17 17 17 18 18 18 18 19 20 20 20 21 20 20 21 21 21 21 21 21 21 21 21 21 20 21 21 21 21 21 22 22 22
16 17 18 17 17 17 17 17 18 18 19 19 18 19 19 19 20 20 21 21 21 21 22 22 22 23 23 23 23 22 22 22 22 22 22 22 22 22 23 23 24 24 25
19 19 19 20 20 19 19 19 20 20 21 21 20 20 20 21 21 22 22 22 22 22 23 23 24 24 24 24 24 24 24 24 24 24 24 24 24 24 25 25 25 25 26
21 21 20 21 21 21 22 22 22 22 21 22 21 22 22 23 23 23 24 24 23 24 25 25 25 26 26 26 26 26 26 26 26 26 26 27 27 27 27 27 27 27 27
23 22 22 22 23 23 23 24 24 24 23 23 24 25 25 25 25 25 25 25 25 26 27 27 28 28 28 29 29 29 29 29 29 29 29 29 30 30 30 30 30 30 29
25 24 24 25 25 26 26 26 27 26 26 26 27 27 27 27 27 27 28 27 27 28 29 30 30 31 31 31 32 32 32 32 32 33 32 32 31 32 32 32 31 31 30
27 27 28 28 28 28 28 29 29 29 29 29 30 30 30 30 30 30 31 30 30 30 31 32 32 33 34 34 34 35 35 35 34 34 34 33 34 34 33 33 33 32 32
30 30 31 32 31 30 30 30 30 30 31 31 31 32 33 32 33 33 33 33 33 33 33 34 35 36 36 36 36 36 36 36 35 35 34 35 36 36 35 35 34 34 34
32 33 33 33 32 31 30 29 30 32 32 32 33 34 34 35 35 35 36 36 36 35 35 35 36 37 37 36 37 38 37 36 37 37 37 36 36 36 36 36 35 36 35
35 35 34 34 33 31 31 31 32 32 33 33 34 34 34 34 35 36 37 37 37 37 37 37 36 37 36 36 36 37 36 35 36 37 38 37 37 37 37 37 37 37 37
34 34 34 33 31 31 31 32 33 34 34 34 34 35 35 35 36 38 39 39 38 38 37 37 36 36 36 36 37 37 36 36 37 37 37 37 37 37 38 38 38 38 38
34 34 33 33 32 32 32 33 34 34 35 35 36 37 37 37 38 39 39 39 38 36 36 37 36 36 36 37 37 38 38 38 38 38 38 38 38 38 38 39 40 40 39
35 34 35 34 34 34 34 34 35 35 35 37 37 38 39 39 39 39 39 38 38 38 37 38 38 37 37 38 38 38 39 39 39 39 39 39 39 39 40 40 41 40 39
35 35 35 35 35 35 35 36 37 37 37 37 38 39 39 40 40 40 39 39 39 39 38 38 38 38 38 38 39 39 39 39 39 39 39 39 40 40 41 41 41 40 40
35 36 36 36 36 37 38 38 39 39 39 39 39 39 39 39 39 39 39 39 38 37 37 37 38 39 39 39 39 39 40 40 40 39 40 40 40 41 41 41 41 41 40
34 34 36 37 37 38 39 39 40 41 40 40 40 39 39 39 38 39 38 38 38 37 37 37 37 38 39 40 40 40 40 41 40 40 40 41 41 41 41 41 40 40 40
33 34 35 36 37 38 38 39 39 39 39 39 39 39 39 39 39 39 38 38 38 37 37 37 37 38 38 39 40 40 40 40 40 40 40 41 41 40 39 39 39 39 39
32 33 34 34 35 36 36 37 37 38 38 38 39 39 40 40 40 39 38 37 37 37 36 36 37 37 38 39 39 39 40 40 40 40 40 40 40 39 38 38 38 38 38
33 33 33 33 35 35 36 37 37 37 37 38 38 39 39 38 38 37 36 36 36 36 36 36 37 37 37 37 38 38 38 39 39 39 39 40 39 38 38 37 38 38 38
31 32 33 33 34 36 36 37 37 36 36 36 37 37 36 35 35 35 35 36 36 35 36 36 37 37 37 37 37 37 37 37 37 37 38 37 37 37 37 37 38 38 38
29 30 31 32 32 33 33 33 33 33 33 33 32 32 33 33 34 34 34 34 34 34 35 35 35 35 36 36 36 36 36 36 36 36 37 37 36 36 36 36 36 37 37
28 29 30 30 31 31 30 30 30 31 31 31 31 31 32 32 32 32 32 32 33 33 32 32 33 33 33 34 34 34 34 35 35 35 36 36 36 36 35 35 35 35 36
27 26 26 26 27 28 28 28 29 29 29 29 29 29 29 29 29 29 30 30 30 30 30 30 31 31 31 31 31 31 32 33 33 34 34 34 34 35 35 35 35 35 36
24 24 24 24 25 26 26 26 26 27 27 27 27 27 28 28 28 28 28 28 28 28 29 29 29 29 29 29 30 31 31 31 31 32 33 33 33 34 35 36 36 36 36
23 23 23 24 24 25 25 25 24 24 25 25 26 26 26 26 26 26 26 26 26 27 27 27 28 28 28 29 30 30 30 30 31 31 32 32 33 34 34 35 35 35 35
22 22 23 23 23 23 23 23 23 23 23 23 24 24 24 24 24 24 25 25 25 26 27 27 27 27 28 29 29 29 29 30 30 30 30 31 31 32 32 33 33 33 33

GEFSGL_500_meanwind_240.txt.gz
Wind_Speed
16 16 16 16 16 15 15 16 17 17 17 18 18 18 19 20 20 20 20 21 22 22 21 22 22 21 22 22 21 21 21 21 22 22 23 23 23 23 23 24 23 23 23
18 18 18 18 18 18 17 18 19 19 19 20 20 20 20 21 21 21 21 21 21 22 22 23 23 23 23 23 23 23 23 23 24 24 25 25 25 25 25 25 25 25 25
20 20 20 20 20 20 19 20 21 21 22 22 22 23 22 22 23 23 23 23 23 23 23 23 23 24 24 25 25 25 26 26 26 26 26 27 27 27 27 27 27 27 27
22 22 22 22 22 22 22 23 23 24 24 24 25 25 25 25 25 26 25 25 25 25 24 25 25 26 27 27 27 27 28 28 28 28 28 29 29 29 29 29 29 29 29
24 24 24 24 24 24 24 25 26 27 27 27 27 28 28 27 27 28 29 29 28 27 27 27 27 28 29 29 30 30 30 30 30 30 31 31 31 31 31 32 32 32 32
26 26 27 27 26 27 27 27 28 29 30 31 31 31 30 30 30 29 30 31 32 31 30 30 30 30 31 32 32 33 33 33 33 33 33 33 33 33 33 34 34 34 33
29 29 29 28 28 29 29 30 31 31 32 32 33 33 33 33 32 32 33 33 33 32 32 33 33 34 34 34 35 35 36 36 35 34 34 34 34 35 36 35 35 35 34
31 31 31 31 30 31 31 32 32 32 33 34 35 35 35 35 35 34 34 34 34 34 34 34 35 36 36 37 37 37 38 37 37 37 36 37 37 36 37 37 36 37 37
33 33 33 33 34 34 33 33 33 33 34 34 35 35 35 36 36 35 34 35 35 35 35 35 36 36 37 38 39 39 39 39 39 38 38 39 39 39 38 38 38 39 39
34 34 35 35 35 35 35 35 34 35 34 35 35 36 36 35 35 35 35 35 36 36 36 36 37 38 39 39 40 41 41 39 39 39 39 40 40 40 40 39 39 40 39
36 36 36 37 37 37 37 37 36 36 37 36 36 36 36 35 34 35 35 36 37 37 38 38 38 39 39 40 41 40 40 39 39 39 40 40 40 40 40 40 40 39 39
38 37 37 38 39 39 39 39 39 38 38 37 36 35 35 35 35 36 38 38 38 39 39 39 39 40 40 41 40 41 41 40 40 41 41 41 41 40 40 39 39 39 39
39 39 38 38 39 39 39 39 39 39 38 37 37 37 36 35 36 37 38 39 39 40 40 40 40 39 39 39 40 40 40 40 40 40 41 41 40 40 40 39 39 39 39
39 39 38 38 39 39 39 38 38 38 37 35 36 36 36 37 38 38 38 39 40 40 40 40 40 40 41 41 40 40 40 39 40 40 40 40 39 39 40 40 40 39 39
38 38 38 39 38 38 39 39 38 37 36 36 36 37 37 37 38 39 39 39 39 40 41 41 41 41 41 41 42 42 41 40 39 40 40 40 40 39 40 40 40 40 40
38 38 38 38 38 38 37 38 38 37 37 37 37 37 38 38 38 38 38 38 39 39 39 40 41 41 41 41 41 40 39 38 38 38 39 40 40 40 40 40 40 40 40
36 36 36 36 36 37 37 38 37 37 37 38 38 38 38 38 38 38 38 38 39 39 40 40 39 40 41 40 39 38 37 36 36 37 38 39 39 39 40 40 40 40 40
34 34 34 35 37 37 37 37 36 35 36 36 36 36 37 37 38 38 38 38 38 39 39 40 40 40 39 37 37 36 36 36 36 36 37 38 38 39 40 40 40 40 40
33 33 33 34 35 35 34 33 33 34 34 34 35 36 37 37 37 37 37 37 37 37 38 38 38 37 36 36 35 35 35 35 36 36 36 37 37 38 38 39 39 39 39
31 31 30 30 31 31 31 32 33 34 34 34 35 35 36 36 36 36 37 36 36 37 36 36 35 35 34 34 34 34 34 35 35 36 36 36 36 36 37 37 37 37 37
28 28 28 28 28 29 30 31 31 31 32 33 33 34 34 35 35 35 36 36 35 34 33 33 33 33 33 32 33 34 34 34 34 34 34 34 34 34 34 34 34 34 34
26 26 26 27 27 28 29 30 31 31 32 32 32 33 34 33 32 32 32 32 31 31 31 32 32 32 33 33 33 33 33 33 33 32 32 32 32 32 32 32 32 32 33
25 25 26 28 28 28 29 30 31 31 31 31 31 31 30 30 29 29 29 30 30 30 30 31 31 31 32 31 31 31 31 31 31 31 31 31 31 32 31 31 31 31 31
24 24 25 27 27 28 28 28 28 28 29 29 29 29 28 28 28 28 29 29 29 29 29 29 29 29 28 28 29 29 30 30 30 30 30 30 31 31 31 30 31 31 31
22 22 23 23 24 24 24 24 25 26 26 27 27 27 27 27 27 28 28 28 27 27 26 26 26 26 27 28 28 28 28 28 28 29 30 30 31 30 30 30 30 30 30
19 19 21 21 21 22 22 21 22 23 24 24 25 25 26 27 26 26 27 27 26 26 25 25 24 25 25 26 26 27 27 27 28 28 28 29 29 29 29 29 28 28 28